Torna al catalogo

THORAD AGENA D DEB

AttivoLEO
NORAD 4934·DEBRIS·🇺🇸 United States

Lanciato Apr 8, 1970 da Vandenberg Space Force Base

Loading…

Prossimi Passaggi (prossime 24 ore)

TLE

AggiornatoSource: Space-Track

Epoca: Sep 14, 2026, 07:59 UTC

1 04934U 70025GA  26257.33292179  .00000395  00000-0  46174-3 0  9994
2 04934 100.0310  27.7398 0005192 317.4266  70.6979 13.75518335808633

Traccia THORAD AGENA D DEB in tempo reale con AllMySat

Download on the App Store